Flag for Brazil Weather past 2 weeks in Cuiabá, Mato Grosso, Brazil

Now
79 °F

Partly sunny.


Feels Like: 81 °F
Forecast: 71 / 85 °F
Wind: 5 mph from South

Location: Cuiaba Aeroporto


UV Index: 7 (High)

Visibility: N/A


Pressure: 30.04 "Hg

Humidity: 74%

Dew point: 70 °F

Location of CuiabáLocation

Historic Weather in Cuiabá

°F

Cuiabá temperature yesterday

Maximum temperature yesterday: 79 °F (at 11:00 AM)
Minimum temperature yesterday: 70 °F (at 12:00 AM)
Average temperature yesterday: 74 °F

Past Weeks' High & Low Weather Summary

 TemperatureHumidityPressure
High93 °F (Apr 21, 1:00 PM)94% (Apr 12, 1:00 AM)30.04 "Hg (Apr 12, 1:00 AM)
Low68 °F (Apr 15, 1:00 AM)25% (Apr 22, 5:00 PM)29.80 "Hg (Apr 9, 3:00 PM)
Average78 °F81%29.92 "Hg
* Reported Apr 9 9:00 AM — Apr 24 9:00 AM, Cuiabá, Weather by CustomWeather, © 2014

Note: Actual official high and low records may vary slightly from our data, if they occured in-between our weather recording intervals... More about our weather records

Advertising

Historic Weather Conditions — Data for Previous 24 hours

 ConditionsComfort  
Time TempWeatherWind HumidityBarometerVisibility
9:00 AM
Apr 24
77 °FPartly sunny.5 mph83%30.04 "HgN/A
8:00 AM75 °FPartly sunny.5 mph83%30.01 "HgN/A
7:00 AM73 °FBroken clouds.No wind89%30.01 "HgN/A
6:00 AM73 °FPartly sunny.2 mph89%29.98 "HgN/A
5:00 AM73 °FPassing clouds.3 mph89%29.95 "HgN/A
4:00 AM73 °FPassing clouds.3 mph89%29.95 "Hg5 mi
3:00 AM73 °FPassing clouds.2 mph89%29.95 "Hg4 mi
2:00 AM73 °FPassing clouds.2 mph89%29.98 "Hg4 mi
1:00 AM73 °FPassing clouds.No wind89%29.98 "HgN/A
11:00 PM
Apr 23
73 °FPassing clouds.3 mph89%30.01 "HgN/A
10:00 PM73 °FPassing clouds.5 mph89%30.01 "HgN/A
9:00 PM73 °FPassing clouds.3 mph89%29.98 "HgN/A
8:00 PM73 °FPartly cloudy.2 mph89%29.95 "HgN/A
7:00 PM73 °FScattered showers. Partly cloudy.7 mph89%N/AN/A
6:00 PM73 °FPassing clouds.3 mph89%29.92 "HgN/A
5:00 PM75 °FScattered clouds.16 mph83%29.92 "HgN/A
4:00 PM77 °FBroken clouds.12 mph79%29.92 "HgN/A
3:00 PM79 °FBroken clouds.17 mph74%29.92 "HgN/A
2:00 PM79 °FPartly sunny.9 mph70%29.95 "HgN/A
1:00 PM79 °FPartly sunny.13 mph74%29.98 "HgN/A
12:00 PM79 °FBroken clouds.8 mph74%29.98 "HgN/A
11:00 AM79 °FBroken clouds.2 mph74%29.98 "HgN/A
10:00 AM77 °FBroken clouds.No wind79%30.01 "HgN/A
Weather by CustomWeather, © 2014

See weather overview